EW4785 Weather Reports


Display with metric or nautical units.
time (UTC)temp
F
wind
direction
speed
MPH
gust
MPH
rain 1hr
in
rain 24hr
in
rain mn
in
humidity
%
barometer
mb
20260903083020 72 178 0.0 0.0 0.00 0.00 0.00 96 1016.2
20260903081519 72 178 0.0 0.0 0.00 0.00 0.00 96 1016.3
20260903080018 72 178 0.0 0.0 0.00 0.00 0.00 96 1016.4
20260903074516 72 178 0.0 0.0 0.00 0.00 0.00 96 1016.2
20260903073033 72 178 0.0 0.0 0.00 0.00 0.00 95 1016.1
20260903071514 72 178 0.0 0.0 0.00 0.00 0.00 95 1016.2
20260903070012 72 178 0.0 0.0 0.00 0.00 0.00 95 1016.2
20260903064512 72 178 0.0 0.0 0.00 0.00 0.00 95 1016.3
20260903063010 73 178 0.0 0.0 0.00 0.00 0.00 95 1016.3
20260903061521 73 178 0.0 0.0 0.00 0.00 0.00 95 1016.4
20260903060007 73 178 0.0 0.0 0.00 0.00 0.00 95 1016.5
20260903054505 74 178 0.0 0.0 0.00 0.00 0.00 95 1016.5
20260903053002 74 178 0.0 0.0 0.00 0.00 0.00 95 1016.4
20260903051600 74 178 0.0 0.0 0.00 0.00 0.00 95 1016.3
20260903050105 74 178 0.0 0.0 0.00 0.00 0.00 95 1016.3
20260903044605 75 178 0.0 0.0 0.00 0.00 0.00 95 1016.2
20260903043056 75 178 0.0 0.0 0.00 0.00 0.00 95 1016.2
20260903041556 75 178 0.0 0.0 0.00 0.00 0.00 95 1016.1
20260903040054 75 178 0.0 0.0 0.00 0.00 0.00 94 1016.3
20260903034551 76 178 0.0 0.0 0.00 0.00 0.00 93 1016.4
20260903033053 76 178 0.0 0.0 0.00 0.00 0.00 93 1016.4
20260903031551 76 178 0.0 0.0 0.00 0.00 0.00 94 1016.5
20260903030109 76 178 0.0 0.0 0.00 0.00 0.00 93 1016.6
20260903024548 76 178 0.0 0.0 0.00 0.00 0.00 93 1016.5
20260903023049 76 178 0.0 0.0 0.00 0.00 0.00 92 1016.6
20260903021548 76 178 0.0 0.0 0.00 0.00 0.00 90 1016.8
20260903020047 77 178 0.0 0.0 0.00 0.00 0.00 91 1016.7
20260903014558 77 178 0.0 0.0 0.00 0.00 0.00 90 1017.2
20260903013048 77 178 0.0 0.0 0.00 0.00 0.00 89 1017.1
20260903011603 78 178 0.0 0.0 0.00 0.00 0.00 88 1017.1
20260903010052 78 178 0.0 0.0 0.00 0.00 0.00 86 1016.9
20260903004545 79 178 0.0 0.0 0.00 0.00 0.00 86 1016.7
20260903003045 80 178 0.0 0.0 0.00 0.00 0.00 85 1016.4
20260903001544 81 178 0.0 0.0 0.00 0.00 0.00 82 1016.2
20260903000043 82 178 0.0 0.0 0.00 0.00 0.00 79 1016.1
20260902234542 83 178 0.0 0.0 0.00 0.00 0.00 77 1016.2
20260902233043 85 178 0.0 0.0 0.00 0.00 0.00 75 1016.1
20260902231551 86 178 0.0 0.0 0.00 0.00 0.00 72 1016.2
20260902230041 88 178 0.0 0.0 0.00 0.00 0.00 68 1016.3
20260902224555 89 178 0.0 0.0 0.00 0.00 0.00 67 1016.1
20260902223050 91 178 0.0 0.0 0.00 0.00 0.00 65 1016.1
20260902221552 93 178 0.0 0.0 0.00 0.00 0.00 66 1016.1
20260902220053 94 178 0.0 1.0 0.00 0.00 0.00 61 1016.1
20260902214537 95 178 0.0 2.0 0.00 0.00 0.00 52 1016.3
20260902213039 95 178 0.0 1.0 0.00 0.00 0.00 55 1016.3
20260902211537 95 178 0.0 3.0 0.00 0.00 0.00 56 1016.4
20260902210042 95 152 0.0 1.0 0.00 0.00 0.00 56 1016.4
20260902204535 95 152 0.0 1.0 0.00 0.00 0.00 57 1016.4
20260902203037 95 152 0.0 2.0 0.00 0.00 0.00 53 1016.4
20260902201543 95 152 0.0 2.0 0.00 0.00 0.00 53 1016.6
20260902200029 95 30 0.0 1.0 0.00 0.00 0.00 58 1016.8
20260902194532 94 30 0.0 2.0 0.00 0.00 0.00 56 1016.9
20260902193039 94 236 1.0 5.0 0.00 0.00 0.00 58 1017.0
20260902191526 94 284 0.0 4.0 0.00 0.00 0.00 59 1017.0
20260902190025 94 186 0.0 3.0 0.00 0.00 0.00 56 1017.2
20260902184525 94 238 0.0 1.0 0.00 0.00 0.00 57 1017.3
20260902183028 94 173 0.0 4.0 0.00 0.00 0.00 59 1017.4
20260902181523 94 268 0.0 0.0 0.00 0.00 0.00 56 1017.5
20260902180021 94 269 0.0 0.0 0.00 0.00 0.00 63 1017.5
20260902174524 94 269 0.0 0.0 0.00 0.00 0.00 60 1017.7
20260902173022 93 269 0.0 0.0 0.00 0.00 0.00 54 1017.9
20260902171517 92 252 0.0 0.0 0.00 0.00 0.00 55 1018.2
20260902170016 92 252 0.0 0.0 0.00 0.00 0.00 58 1018.3
20260902164514 93 261 0.0 0.0 0.00 0.00 0.00 63 1018.2
20260902163009 91 17 0.0 0.0 0.00 0.00 0.00 62 1018.3
20260902161507 91 302 0.0 0.0 0.00 0.00 0.00 63 1018.4
20260902160007 90 323 0.0 0.0 0.00 0.00 0.00 71 1018.5
20260902154505 90 317 0.0 0.0 0.00 0.00 0.00 69 1018.4
20260902153011 89 246 0.0 0.0 0.00 0.00 0.00 71 1018.7
20260902151602 89 26 0.0 0.0 0.00 0.00 0.00 71 1018.7
20260902150057 88 144 0.0 0.0 0.00 0.00 0.00 71 1018.8
20260902144554 87 144 0.0 0.0 0.00 0.00 0.00 72 1018.5
20260902143051 86 144 0.0 0.0 0.00 0.00 0.00 74 1018.4
20260902141546 85 144 0.0 0.0 0.00 0.00 0.00 77 1018.4
20260902140044 83 146 0.0 0.0 0.00 0.00 0.00 79 1018.3
20260902134548 80 146 0.0 0.0 0.00 0.00 0.00 85 1018.3
20260902133034 77 146 0.0 0.0 0.00 0.00 0.00 89 1018.4
20260902131540 76 146 0.0 0.0 0.00 0.00 0.00 92 1018.4
20260902130027 75 146 0.0 0.0 0.00 0.00 0.00 94 1018.4
20260902124531 74 146 0.0 0.0 0.00 0.00 0.00 95 1018.4
20260902123033 73 146 0.0 0.0 0.00 0.00 0.00 98 1018.5
20260902121528 72 146 0.0 0.0 0.00 0.00 0.00 98 1018.6
20260902120025 72 146 0.0 0.0 0.00 0.00 0.00 97 1018.5
20260902114523 72 146 0.0 0.0 0.00 0.00 0.00 97 1018.3
20260902113023 71 146 0.0 0.0 0.00 0.00 0.00 97 1018.3
20260902111521 71 146 0.0 0.0 0.00 0.00 0.00 97 1018.2
20260902110033 71 146 0.0 0.0 0.00 0.00 0.00 97 1017.9
20260902104518 71 146 0.0 0.0 0.00 0.00 0.00 97 1017.8
20260902103020 71 146 0.0 0.0 0.00 0.00 0.00 97 1017.7
20260902101516 71 146 0.0 0.0 0.00 0.00 0.00 96 1017.7
20260902100016 71 146 0.0 0.0 0.00 0.00 0.00 97 1017.5
20260902094512 72 146 0.0 0.0 0.00 0.00 0.00 96 1017.5
20260902093020 72 146 0.0 0.0 0.00 0.00 0.00 96 1017.3
20260902091511 72 146 0.0 0.0 0.00 0.00 0.00 96 1017.2
20260902090009 72 146 0.0 0.0 0.00 0.00 0.00 96 1017.3
20260902084508 72 146 0.0 0.0 0.00 0.00 0.00 96 1017.2